Tiempo cada hora Czyzewo

Hoy, 22 Junio, Martes

Tiempo Temperatura Precipitaciones Viento Presión Humedad
00:00 +19°C° 0 mm 2 mps 738 mmHg 93%
01:00 +20°C° 0 mm 1 mps 738 mmHg 93%
02:00 +20°C° 0.3 mm 1 mps 738 mmHg 94%
03:00 +20°C° 0.3 mm 1 mps 738 mmHg 95%
04:00 +19°C° 0.3 mm 1 mps 738 mmHg 96%
05:00 +19°C° 0.2 mm 2 mps 738 mmHg 93%
06:00 +20°C° 0.2 mm 2 mps 739 mmHg 90%
07:00 +21°C° 0.2 mm 2 mps 739 mmHg 87%
08:00 +21°C° 0 mm 3 mps 740 mmHg 82%
09:00 +22°C° 0 mm 3 mps 740 mmHg 77%
10:00 +22°C° 0 mm 4 mps 741 mmHg 72%
11:00 +22°C° 0 mm 4 mps 741 mmHg 70%
12:00 +22°C° 0 mm 5 mps 741 mmHg 68%
13:00 +22°C° 0 mm 5 mps 742 mmHg 66%
14:00 +21°C° 0 mm 5 mps 742 mmHg 67%
15:00 +20°C° 0 mm 4 mps 742 mmHg 69%
16:00 +20°C° 0 mm 4 mps 742 mmHg 70%
17:00 +18°C° 0.1 mm 4 mps 742 mmHg 73%
18:00 +17°C° 0.1 mm 4 mps 743 mmHg 77%
19:00 +14°C° 0.1 mm 3 mps 743 mmHg 80%
20:00 +14°C° 0 mm 3 mps 743 mmHg 79%
21:00 +14°C° 0 mm 3 mps 743 mmHg 78%
22:00 +15°C° 0 mm 2 mps 744 mmHg 78%
23:00 +14°C° 0 mm 2 mps 744 mmHg 82%

Mañana, 23 Junio, Miércoles

Tiempo Temperatura Precipitaciones Viento Presión Humedad
00:00 +13°C° 0 mm 2 mps 744 mmHg 86%
01:00 +13°C° 0 mm 1 mps 744 mmHg 90%
02:00 +12°C° 0 mm 2 mps 744 mmHg 91%
03:00 +12°C° 0 mm 2 mps 744 mmHg 92%
04:00 +12°C° 0 mm 2 mps 744 mmHg 94%
05:00 +14°C° 0 mm 2 mps 744 mmHg 87%
06:00 +16°C° 0 mm 3 mps 745 mmHg 81%
07:00 +17°C° 0 mm 3 mps 745 mmHg 74%
08:00 +19°C° 0 mm 3 mps 745 mmHg 69%
09:00 +20°C° 0 mm 3 mps 745 mmHg 63%
10:00 +21°C° 0 mm 3 mps 746 mmHg 58%
11:00 +22°C° 0 mm 3 mps 746 mmHg 56%
12:00 +22°C° 0 mm 3 mps 746 mmHg 54%
13:00 +24°C° 0 mm 3 mps 746 mmHg 52%
14:00 +24°C° 0 mm 3 mps 746 mmHg 52%
15:00 +24°C° 0 mm 3 mps 746 mmHg 53%
16:00 +24°C° 0 mm 3 mps 746 mmHg 53%
17:00 +22°C° 0 mm 3 mps 746 mmHg 60%
18:00 +20°C° 0 mm 3 mps 746 mmHg 66%
19:00 +19°C° 0 mm 3 mps 746 mmHg 73%
20:00 +17°C° 0 mm 3 mps 746 mmHg 80%
21:00 +16°C° 0 mm 2 mps 747 mmHg 88%
22:00 +14°C° 0 mm 1 mps 747 mmHg 95%
23:00 +14°C° 0 mm 1 mps 747 mmHg 95%

Pasado mañana, 24 Junio, Jueves

Tiempo Temperatura Precipitaciones Viento Presión Humedad
00:00 +13°C° 0 mm 1 mps 746 mmHg 95%
01:00 +13°C° 0 mm 1 mps 746 mmHg 96%
02:00 +13°C° 0 mm 1 mps 746 mmHg 95%
03:00 +13°C° 0 mm 1 mps 746 mmHg 95%
04:00 +13°C° 0 mm 1 mps 746 mmHg 95%
05:00 +15°C° 0 mm 1 mps 746 mmHg 88%
06:00 +16°C° 0 mm 1 mps 746 mmHg 80%
07:00 +19°C° 0 mm 1 mps 746 mmHg 72%
08:00 +21°C° 0 mm 1 mps 746 mmHg 65%
09:00 +22°C° 0 mm 1 mps 746 mmHg 57%
10:00 +24°C° 0 mm 1 mps 746 mmHg 50%
11:00 +25°C° 0 mm 2 mps 746 mmHg 48%
12:00 +26°C° 0 mm 2 mps 745 mmHg 46%
13:00 +26°C° 0 mm 2 mps 745 mmHg 44%
14:00 +26°C° 0 mm 2 mps 745 mmHg 46%
15:00 +26°C° 0 mm 3 mps 745 mmHg 49%
16:00 +25°C° 0 mm 3 mps 745 mmHg 52%
17:00 +24°C° 0 mm 3 mps 745 mmHg 58%
18:00 +21°C° 0 mm 3 mps 745 mmHg 65%
19:00 +19°C° 0 mm 3 mps 744 mmHg 72%
20:00 +18°C° 0 mm 3 mps 744 mmHg 79%
21:00 +16°C° 0 mm 2 mps 744 mmHg 85%
22:00 +15°C° 0 mm 2 mps 744 mmHg 92%
23:00 +15°C° 0 mm 2 mps 744 mmHg 93%

25 Junio, Viernes

Tiempo Temperatura Precipitaciones Viento Presión Humedad
00:00 +14°C° 0 mm 2 mps 743 mmHg 93%
01:00 +14°C° 0 mm 2 mps 743 mmHg 93%
02:00 +14°C° 0 mm 2 mps 743 mmHg 92%
03:00 +14°C° 0 mm 2 mps 742 mmHg 91%
04:00 +15°C° 0 mm 2 mps 742 mmHg 89%
05:00 +15°C° 0.1 mm 2 mps 742 mmHg 88%
06:00 +16°C° 0.1 mm 2 mps 742 mmHg 87%
07:00 +16°C° 0.1 mm 2 mps 742 mmHg 85%
08:00 +17°C° 0.2 mm 2 mps 742 mmHg 84%
09:00 +17°C° 0.2 mm 2 mps 742 mmHg 83%
10:00 +18°C° 0.2 mm 2 mps 742 mmHg 82%
11:00 +17°C° 0.5 mm 2 mps 742 mmHg 85%
12:00 +17°C° 0.5 mm 2 mps 742 mmHg 87%
13:00 +16°C° 0.5 mm 2 mps 743 mmHg 90%
14:00 +16°C° 0.3 mm 2 mps 743 mmHg 91%
15:00 +16°C° 0.3 mm 3 mps 743 mmHg 91%
16:00 +16°C° 0.3 mm 3 mps 743 mmHg 92%
17:00 +16°C° 0.3 mm 3 mps 743 mmHg 92%
18:00 +16°C° 0.3 mm 3 mps 743 mmHg 93%
19:00 +15°C° 0.3 mm 4 mps 743 mmHg 93%
20:00 +14°C° 0.2 mm 3 mps 743 mmHg 94%
21:00 +14°C° 0.2 mm 3 mps 743 mmHg 94%
22:00 +14°C° 0.2 mm 3 mps 743 mmHg 95%
23:00 +14°C° 0.1 mm 3 mps 743 mmHg 95%

26 Junio, Sábado

Tiempo Temperatura Precipitaciones Viento Presión Humedad
00:00 +14°C° 0.1 mm 3 mps 743 mmHg 96%
01:00 +14°C° 0.1 mm 3 mps 743 mmHg 96%
02:00 +14°C° 0.2 mm 4 mps 743 mmHg 97%
03:00 +14°C° 0.2 mm 4 mps 743 mmHg 97%
04:00 +14°C° 0.2 mm 4 mps 743 mmHg 98%
05:00 +14°C° 0.2 mm 4 mps 743 mmHg 97%
06:00 +14°C° 0.2 mm 4 mps 743 mmHg 97%
07:00 +14°C° 0.2 mm 4 mps 743 mmHg 97%
08:00 +15°C° 0.2 mm 4 mps 743 mmHg 95%
09:00 +15°C° 0.2 mm 4 mps 744 mmHg 94%
10:00 +17°C° 0.2 mm 4 mps 744 mmHg 92%
11:00 +17°C° 0.3 mm 4 mps 744 mmHg 89%
12:00 +18°C° 0.3 mm 4 mps 744 mmHg 87%
13:00 +18°C° 0.3 mm 4 mps 744 mmHg 84%
14:00 +19°C° 0.2 mm 4 mps 744 mmHg 79%
15:00 +19°C° 0.2 mm 4 mps 745 mmHg 75%
16:00 +20°C° 0.2 mm 4 mps 745 mmHg 71%
17:00 +19°C° 0 mm 4 mps 745 mmHg 72%
18:00 +18°C° 0 mm 4 mps 744 mmHg 73%
19:00 +18°C° 0 mm 3 mps 744 mmHg 75%
20:00 +16°C° 0 mm 3 mps 745 mmHg 81%
21:00 +15°C° 0 mm 2 mps 745 mmHg 88%
22:00 +14°C° 0 mm 2 mps 745 mmHg 95%
23:00 +14°C° 0 mm 2 mps 745 mmHg 96%

27 Junio, Domingo

Tiempo Temperatura Precipitaciones Viento Presión Humedad
00:00 +13°C° 0 mm 2 mps 745 mmHg 96%
01:00 +13°C° 0 mm 2 mps 745 mmHg 96%
02:00 +13°C° 0 mm 2 mps 745 mmHg 97%
03:00 +13°C° 0 mm 2 mps 744 mmHg 97%
04:00 +13°C° 0 mm 2 mps 744 mmHg 97%
05:00 +15°C° 0 mm 2 mps 745 mmHg 89%
06:00 +17°C° 0 mm 3 mps 745 mmHg 81%
07:00 +18°C° 0 mm 3 mps 745 mmHg 74%
08:00 +20°C° 0 mm 3 mps 745 mmHg 66%
09:00 +22°C° 0 mm 3 mps 745 mmHg 58%
10:00 +24°C° 0 mm 3 mps 745 mmHg 50%
11:00 +25°C° 0 mm 3 mps 745 mmHg 47%
12:00 +26°C° 0 mm 3 mps 745 mmHg 43%
13:00 +27°C° 0 mm 2 mps 745 mmHg 40%
14:00 +27°C° 0 mm 2 mps 745 mmHg 40%
15:00 +27°C° 0 mm 2 mps 745 mmHg 41%
16:00 +27°C° 0 mm 2 mps 745 mmHg 41%
17:00 +26°C° 0 mm 2 mps 745 mmHg 49%
18:00 +24°C° 0 mm 2 mps 745 mmHg 57%
19:00 +23°C° 0 mm 2 mps 745 mmHg 65%
20:00 +21°C° 0 mm 2 mps 745 mmHg 71%
21:00 +19°C° 0 mm 2 mps 745 mmHg 77%
22:00 +17°C° 0 mm 2 mps 745 mmHg 82%
23:00 +17°C° 0 mm 2 mps 745 mmHg 82%
Mostrar más

Necesitamos Su Consentimiento

Meteoprog y nuestros Proveedores de Servicios pueden almacenar y acceder a sus datos personales como cookies, identificadores de dispositivo u otras tecnologías similares de su dispositivo y procesar dichos datos para personalizar contenido y anuncios, además de ofrecer funciones de redes sociales y analizar el tráfico.

  • Almacenar y/o acceder a información en su dispositivo

    Se puede almacenar o acceder a cookies, identificadores de dispositivo u otra información de su dispositivo para los fines anteriormente indicados.

  • Anuncios y contenido personalizados, medición de anuncios y contenido, percepciones del público, y desarrollo de productos

    Los anuncios y el contenido pueden personalizarse en base a su perfil. Se pueden añadir más datos para personalizar mejor los anuncios y contenidos. Se puede medir el rendimiento de los anuncios y contenidos. Se puede obtener la percepción sobre el público que ha visto los anuncios y contenidos. Dichos datos pueden usarse para desarrollar o mejorar la experiencia del usuario, sistemas y software.

Al hacer clic en ‘Estoy De Acuerdo’ usted permitirá el uso de las cookies, identificadores de dispositivo, balizas web u otras tecnologías similares indicadas. Su configuración puede cambiarse desde el navegador de su dispositivo.

Para ciertos fines, los intereses legítimos pueden ser considerados por encima del consentimiento. Puede leer más sobre ello en nuestra Política de Privacidad y Cookies.